User: anonymous   Login
Location: Caltech
(34.1382°N, 118.1253°W)
Time: 07:40:27
(UTC-07:00)
Language:

CZ-4B DEB - Orbit

View from above orbital plane
View from above orbital plane
View from above satellite
View from above satellite

Ground track
Ground track

The orbit data is extracted from the following two-line orbital elements,

1 27433U 02024D   16241.99591186  .00000108  00000-0  82885-4 0  9993
2 27433  98.9282 209.6418 0014815 151.1572 209.0421 14.12096239735932
Epoch (UTC): 28 August 2016 23:54:06
Eccentricity: 0.0014815
inclination: 98.9282°
perigee height: 841 km
apogee height: 863 km
right ascension of ascending node: 209.6418°
argument of perigee: 151.1572°
revolutions per day: 14.12096239
mean anomaly at epoch: 209.0421°
orbit number at epoch: 73593

The dashed part of the orbit path shows where the satellite is in the earth's shadow,  

DLR